SWA4666 KBUR-KSMF

Flight info

Callsign SWA4666
Flight time N/A
Altitude 40000
Route OROSZ2 CSTRO NURAY SUUTR4
Aircraft B737/M-SADE2E3GIJ4RWZ/LB1D1

Departure

Time 2026-05-05 21:43
Airport Hollywood Burbank/Bob Hope Airport (KBUR)

Arrival

Time N/A
Airport Sacramento International Airport (KSMF)
Time Latitude Longitude Altitude Speed Heading
2026-05-05 21:03 34.19678 -118.35242 712 ft 0 kts 182°
2026-05-05 21:31 34.19683 -118.35242 715 ft 4 kts 184°
2026-05-05 21:31 34.19707 -118.35234 697 ft 4 kts 226°
2026-05-05 21:32 34.19717 -118.35209 697 ft 2 kts 270°
2026-05-05 21:32 34.19717 -118.35207 697 ft 0 kts 271°
2026-05-05 21:35 34.19718 -118.35224 697 ft 6 kts 271°
2026-05-05 21:35 34.19719 -118.35305 711 ft 13 kts 271°
2026-05-05 21:35 34.19741 -118.35435 710 ft 17 kts 299°
2026-05-05 21:35 34.19830 -118.35525 717 ft 17 kts 334°
2026-05-05 21:36 34.19941 -118.35555 718 ft 16 kts 349°
2026-05-05 21:36 34.20058 -118.35588 724 ft 18 kts 344°
2026-05-05 21:36 34.20176 -118.35620 728 ft 17 kts 348°
2026-05-05 21:36 34.20288 -118.35652 732 ft 16 kts 347°
2026-05-05 21:37 34.20409 -118.35686 740 ft 18 kts 346°
2026-05-05 21:37 34.20532 -118.35720 746 ft 18 kts 347°
2026-05-05 21:37 34.20651 -118.35751 753 ft 17 kts 347°
2026-05-05 21:37 34.20765 -118.35782 765 ft 17 kts 347°
2026-05-05 21:38 34.20873 -118.35811 774 ft 16 kts 347°
2026-05-05 21:38 34.20979 -118.35839 780 ft 15 kts 347°
2026-05-05 21:38 34.21090 -118.35869 782 ft 17 kts 347°
2026-05-05 21:38 34.21164 -118.35916 784 ft 3 kts 312°
2026-05-05 21:41 34.21168 -118.35920 784 ft 4 kts 313°
2026-05-05 21:41 34.21202 -118.35978 784 ft 13 kts 277°
2026-05-05 21:41 34.21137 -118.36021 785 ft 0 kts 167°
2026-05-05 21:42 34.21069 -118.36003 787 ft 31 kts 167°
2026-05-05 21:42 34.20604 -118.35875 751 ft 103 kts 167°
2026-05-05 21:42 34.19718 -118.35627 738 ft 154 kts 168°
2026-05-05 21:43 34.18669 -118.35270 1307 ft 158 kts 165°
2026-05-05 21:43 34.17503 -118.35303 1590 ft 182 kts 212°
2026-05-05 21:43 34.16544 -118.36311 2235 ft 192 kts 220°
2026-05-05 21:43 34.15487 -118.37466 2500 ft 222 kts 233°
2026-05-05 21:44 34.15037 -118.39259 2980 ft 243 kts 271°
2026-05-05 21:44 34.15653 -118.41214 3626 ft 261 kts 307°
2026-05-05 21:44 34.16961 -118.42745 4615 ft 262 kts 316°
2026-05-05 21:44 34.18296 -118.44242 5574 ft 264 kts 317°
2026-05-05 21:45 34.19621 -118.45761 6717 ft 260 kts 316°
2026-05-05 21:45 34.20926 -118.47294 7991 ft 259 kts 315°
2026-05-05 21:45 34.22235 -118.48836 9025 ft 268 kts 316°
2026-05-05 21:45 34.23590 -118.50405 10106 ft 271 kts 318°
2026-05-05 21:46 34.25059 -118.51950 10731 ft 292 kts 320°
2026-05-05 21:46 34.26698 -118.53604 11024 ft 322 kts 321°
2026-05-05 21:46 34.28483 -118.55401 11559 ft 340 kts 321°
2026-05-05 21:46 34.30308 -118.57258 12595 ft 341 kts 321°
2026-05-05 21:47 34.32123 -118.59122 13680 ft 344 kts 321°
2026-05-05 21:47 34.33947 -118.60988 14444 ft 354 kts 321°
2026-05-05 21:47 34.36013 -118.62825 14425 ft 385 kts 328°
2026-05-05 21:47 34.38490 -118.64362 14201 ft 416 kts 339°
2026-05-05 21:48 34.41346 -118.65285 14438 ft 430 kts 352°
2026-05-05 21:48 34.44297 -118.65294 15357 ft 423 kts
2026-05-05 21:48 34.47081 -118.64246 16442 ft 418 kts 26°
2026-05-05 21:48 34.49483 -118.62159 16975 ft 427 kts 44°
2026-05-05 21:49 34.51165 -118.59497 16958 ft 446 kts 60°
2026-05-05 21:49 34.52276 -118.55909 16893 ft 464 kts 78°
2026-05-05 21:49 34.52423 -118.51974 17163 ft 472 kts 96°
2026-05-05 21:49 34.51486 -118.48162 17718 ft 473 kts 116°
2026-05-05 21:50 34.49535 -118.44975 18260 ft 474 kts 137°
2026-05-05 21:50 34.47883 -118.43489 18422 ft 478 kts 150°
2026-05-05 21:50 34.44602 -118.42153 18350 ft 490 kts 174°
2026-05-05 21:50 34.41180 -118.42514 17894 ft 503 kts 199°
2026-05-05 21:51 34.38147 -118.44614 17387 ft 511 kts 224°
2026-05-05 21:51 34.36197 -118.48122 16962 ft 513 kts 251°
2026-05-05 21:51 34.35851 -118.52377 16535 ft 513 kts 280°
2026-05-05 21:51 34.37320 -118.56256 15991 ft 514 kts 311°